DW0269 Weather Reports


Display with metric or nautical units.
time (UTC)temp
F
wind
direction
speed
MPH
gust
MPH
rain 1hr
in
rain 24hr
in
rain mn
in
humidity
%
barometer
mb
20260505011123 70 11 2.0 12.0 0.00 0.00 0.00 87 950.4
20260505010622 71 262 1.0 12.0 0.00 0.00 0.00 87 950.4
20260505005605 71 343 2.0 12.0 0.00 0.00 0.00 86 950.8
20260505004032 72 352 1.0 12.0 0.00 0.00 0.00 86 950.5
20260505003531 71 37 5.0 12.0 0.00 0.00 0.00 86 950.3
20260505003030 71 31 3.0 12.0 0.00 0.00 0.00 87 950.1
20260505002013 72 34 4.0 12.0 0.00 0.00 0.00 85 950.4
20260505001512 72 27 3.0 12.0 0.00 0.00 0.00 86 950.2
20260505001011 72 48 4.0 12.0 0.00 0.00 0.00 85 950.2
20260505000510 73 28 5.0 12.0 0.00 0.00 0.00 83 950.3
20260505000009 74 39 4.0 12.0 0.00 0.00 0.00 83 950.3
20260504235508 75 36 4.0 12.0 0.00 0.00 0.00 83 950.3
20260504235007 75 81 1.0 12.0 0.00 0.00 0.00 84 950.4
20260504234506 75 30 3.0 12.0 0.00 0.00 0.00 83 950.2
20260504234005 75 29 5.0 12.0 0.00 0.00 0.00 83 950.2
20260504233504 75 40 4.0 12.0 0.00 0.00 0.00 83 950.5
20260504232447 73 37 5.0 12.0 0.00 0.00 0.00 86 950.5
20260504231946 73 31 4.0 12.0 0.00 0.00 0.00 88 950.8
20260504230929 72 57 4.0 12.0 0.00 0.00 0.00 87 950.6
20260504230428 72 54 2.0 12.0 0.00 0.00 0.00 89 950.9
20260504225927 71 41 3.0 12.0 0.00 0.00 0.00 89 950.8
20260504224910 71 73 5.0 14.0 0.00 0.00 0.00 87 951.0
20260504224409 72 51 4.0 14.0 0.00 0.00 0.00 87 950.7
20260504223908 72 61 4.0 14.0 0.00 0.00 0.00 85 951.4
20260504223407 73 40 5.0 14.0 0.00 0.00 0.00 85 951.0
20260504222906 73 40 3.0 14.0 0.00 0.00 0.00 85 950.9
20260504222406 74 54 5.0 14.0 0.00 0.00 0.00 83 951.0
20260504221905 74 39 6.0 14.0 0.00 0.00 0.00 84 951.0
20260504220847 74 46 5.0 14.0 0.00 0.00 0.00 83 950.9
20260504220346 74 42 4.0 14.0 0.00 0.00 0.00 85 951.1
20260504215846 73 58 4.0 14.0 0.00 0.00 0.00 86 951.3
20260504215344 73 59 5.0 14.0 0.00 0.00 0.00 86 951.1
20260504214327 73 72 5.0 13.0 0.00 0.00 0.00 87 951.2
20260504213827 73 65 5.0 15.0 0.00 0.00 0.00 85 951.0
20260504213325 73 64 4.0 15.0 0.00 0.00 0.00 86 951.2
20260504212825 73 79 7.0 13.0 0.00 0.00 0.00 83 951.3
20260504212324 73 89 6.0 13.0 0.00 0.00 0.00 84 951.2
20260504211823 73 68 6.0 13.0 0.00 0.00 0.00 87 951.0
20260504211322 73 87 4.0 12.0 0.00 0.00 0.00 88 951.2
20260504210304 73 58 6.0 13.0 0.00 0.00 0.00 84 950.9
20260504205803 74 61 6.0 11.0 0.00 0.00 0.00 84 951.3
20260504205304 74 51 5.0 11.0 0.00 0.00 0.00 84 951.0
20260504204802 74 53 4.0 13.0 0.00 0.00 0.00 86 951.4
20260504204301 73 79 5.0 13.0 0.00 0.00 0.00 85 951.5
20260504203800 73 73 5.0 13.0 0.00 0.00 0.00 84 951.3
20260504203258 73 60 4.0 12.0 0.00 0.00 0.00 86 951.9
20260504202757 73 51 4.0 12.0 0.00 0.00 0.00 86 951.8
20260504202256 73 59 5.0 12.0 0.00 0.00 0.00 85 951.7
20260504201755 73 58 4.0 12.0 0.00 0.00 0.00 85 951.8
20260504201253 73 58 5.0 12.0 0.00 0.00 0.00 84 951.8
20260504200753 73 64 4.0 12.0 0.00 0.00 0.00 84 951.8
20260504200252 73 54 4.0 12.0 0.00 0.00 0.00 84 951.9
20260504195751 73 62 5.0 12.0 0.00 0.00 0.00 84 951.7
20260504195249 73 42 3.0 12.0 0.00 0.00 0.00 87 951.9
20260504194749 72 49 4.0 12.0 0.00 0.00 0.00 86 951.7
20260504194248 72 52 4.0 12.0 0.00 0.00 0.00 86 951.7
20260504193746 72 61 4.0 12.0 0.00 0.00 0.00 86 951.7
20260504193245 72 68 5.0 12.0 0.00 0.00 0.00 84 951.9
20260504192227 71 84 5.0 12.0 0.00 0.00 0.00 88 951.6
20260504191727 71 64 5.0 12.0 0.00 0.00 0.00 87 951.6
20260504190710 70 56 4.0 12.0 0.00 0.00 0.00 91 951.7
20260504190209 70 64 5.0 12.0 0.00 0.00 0.00 89 951.6
20260504185708 70 52 4.0 12.0 0.00 0.00 0.00 90 951.5
20260504184651 70 74 5.0 13.0 0.00 0.00 0.00 89 951.7
20260504184150 70 74 4.0 13.0 0.00 0.00 0.00 90 952.0
20260504182617 68 47 3.0 13.0 0.00 0.00 0.00 93 951.7
20260504182116 68 84 5.0 13.0 0.00 0.00 0.00 92 951.6
20260504181614 68 102 6.0 13.0 0.00 0.00 0.00 92 951.9
20260504180557 67 101 4.0 13.0 0.00 0.00 0.00 94 951.9
20260504175540 67 103 5.0 13.0 0.00 0.00 0.00 93 951.6
20260504175039 67 90 5.0 13.0 0.00 0.00 0.00 92 951.7
20260504174537 67 69 4.0 13.0 0.00 0.00 0.00 92 951.7
20260504173520 66 80 4.0 13.0 0.00 0.00 0.00 93 951.7
20260504173019 66 96 4.0 13.0 0.00 0.00 0.00 93 951.7
20260504172518 66 80 4.0 13.0 0.00 0.00 0.00 94 951.4
20260504172017 66 62 3.0 13.0 0.00 0.00 0.00 94 951.6
20260504171516 66 49 3.0 13.0 0.00 0.00 0.00 94 951.2
20260504171015 66 69 2.0 13.0 0.00 0.00 0.00 94 951.3
20260504170514 65 66 1.0 13.0 0.00 0.00 0.00 95 951.3
20260504150920 64 30 7.0 13.0 0.00 0.00 0.00 96 949.3
20260504140822 63 45 6.0 14.0 0.00 0.00 0.00 96 949.0
20260504140320 63 46 5.0 14.0 0.00 0.00 0.00 95 949.2
20260504130723 63 37 7.0 12.0 0.00 0.00 0.00 97 949.0
20260504130222 63 34 7.0 12.0 0.00 0.00 0.00 97 949.2
20260504120207 63 47 6.0 12.0 0.00 0.00 0.00 97 950.0
20260504110652 63 51 4.0 13.0 0.00 0.00 0.00 97 950.3
20260504110151 63 53 4.0 13.0 0.00 0.00 0.00 97 950.5
20260504100524 63 45 5.0 13.0 0.00 0.00 0.00 96 950.8
20260504081830 63 47 5.0 18.0 0.00 0.00 0.00 95 951.4
20260504081329 63 44 8.0 18.0 0.00 0.00 0.00 95 951.2
20260504080827 63 51 5.0 18.0 0.00 0.00 0.00 95 951.0
20260504070159 63 51 6.0 15.0 0.00 0.00 0.00 96 951.1
20260504045515 63 24 5.0 13.0 0.00 0.00 0.00 93 949.9
20260504045015 63 27 8.0 13.0 0.00 0.00 0.00 94 950.0
20260504044514 63 29 5.0 13.0 0.00 0.00 0.00 94 949.9
20260504044012 63 40 5.0 13.0 0.00 0.00 0.00 94 949.9
20260504043511 63 38 5.0 13.0 0.00 0.00 0.00 94 950.1
20260504043010 63 30 5.0 13.0 0.00 0.00 0.00 94 949.8
20260504042509 63 35 6.0 13.0 0.00 0.00 0.00 93 949.6
20260504042009 63 31 7.0 13.0 0.00 0.00 0.00 93 949.6
20260504041507 63 32 6.0 13.0 0.00 0.00 0.00 93 949.7
20260504041007 63 41 6.0 13.0 0.00 0.00 0.00 93 949.5
20260504040505 63 39 7.0 13.0 0.00 0.00 0.00 93 949.4
20260504040005 64 46 5.0 13.0 0.00 0.00 0.00 93 949.6
20260504035504 64 39 7.0 13.0 0.00 0.00 0.00 93 949.5
20260504035002 65 46 5.0 12.0 0.00 0.00 0.00 92 949.5
20260504034501 65 37 4.0 12.0 0.00 0.00 0.00 92 949.8
20260504034000 66 38 4.0 12.0 0.00 0.00 0.00 92 949.4
20260504033458 66 36 5.0 13.0 0.00 0.00 0.00 92 949.0
20260504032957 66 36 5.0 13.0 0.00 0.00 0.00 92 949.0
20260504032457 66 37 7.0 13.0 0.00 0.00 0.00 90 949.0
20260504031956 67 35 8.0 13.0 0.00 0.00 0.00 90 949.0
20260504031455 67 32 5.0 13.0 0.00 0.00 0.00 90 948.9
20260504030954 67 17 5.0 13.0 0.00 0.00 0.00 89 949.1
20260504025937 67 31 5.0 13.0 0.00 0.00 0.00 88 948.9
20260504025436 67 28 7.0 13.0 0.00 0.00 0.00 88 948.9
20260504024935 67 28 6.0 13.0 0.00 0.00 0.00 88 948.7
20260504024434 68 39 5.0 13.0 0.00 0.00 0.00 89 948.8
20260504023933 69 37 7.0 12.0 0.00 0.00 0.00 88 948.7
20260504023432 69 37 5.0 12.0 0.00 0.00 0.00 88 948.7
20260504022931 69 40 6.0 12.0 0.00 0.00 0.00 86 948.7
20260504022430 70 38 6.0 12.0 0.00 0.00 0.00 85 948.9
20260504021929 70 35 6.0 12.0 0.00 0.00 0.00 83 948.9
20260504021428 70 32 5.0 14.0 0.00 0.00 0.00 83 948.9
20260504020927 70 32 5.0 14.0 0.00 0.00 0.00 83 949.2
20260504020426 70 24 5.0 14.0 0.00 0.00 0.00 82 949.3
20260504015925 70 28 5.0 14.0 0.00 0.00 0.00 83 949.1
20260504015424 70 29 5.0 14.0 0.00 0.00 0.00 82 949.1
20260504014923 71 31 4.0 14.0 0.00 0.00 0.00 83 949.4
20260504014421 70 43 7.0 14.0 0.00 0.00 0.00 81 949.2
20260504013920 71 29 6.0 14.0 0.00 0.00 0.00 83 949.3
20260504012346 71 38 5.0 12.0 0.00 0.00 0.00 84 949.1
20260504011845 70 37 4.0 12.0 0.00 0.00 0.00 87 949.4